DODECAPOLE 2 DEB, 41734

Orbit data source: Space-Track

DODECAPOLE 2 DEB, 41734 is space debris in LEO originally from a launch on Fri, 13 Aug 1965 UTC launched from the Air Force Western Test Range (AFWTR). Debris objects in space refer to the collection of defunct objects orbiting the Earth. Examples of debris include non-operational satellites, rocket bodies, and fragments generated from explosions, collisions, or faulty payload assembly.

Loading next visibility...
Identifier
41734, 1965-065U
Orbit
LEO
Country
Flag of USUS
Related business
Manufacturer
Unknown
Mission
Spacecraft
Bus & Motor
Unknown
Mass
Unknown
Launch date (UTC)
1965-08-13 (61 years ago)
Launch vehicle
Unknown
Launch site
Air Force Western Test Range (AFWTR)
Object type
Payload
Rocket body
Debris
Shape & HBR
Unknown shape, 0.1 m
Radar Cross Section
Medium (>0.1 m² and <1 m²)

Expand to show TLE details & history
Last TLE update: 1 day ago

TLE from 1 day ago
0 DODECAPOLE 2 DEB
1 41734U 65065U   26235.96583214  .00005099  00000-0  22805-2 0  9999
2 41734  90.0475  23.1308 0029076 245.6994 114.1161 14.22310389545952
Epoch: 2026-08-23T23:10Z
TLE epoch observation values (Epoch: 2026-08-23T23:10:47.896Z)
Latitude
0.00002°
Longitude
63.17692°
Altitude
829.209 km
Speed
7.434 km/s
True Right ascension
01h 32m 31s
True Declination
0° 00' 00"
Sunlit
Object was in full shadow at epoch
Visualization orbit readout
Latitude
Unknown
Longitude
Unknown
Altitude
Unknown
Speed
Unknown
Apparent Right ascension
Unknown
Apparent Declination
Unknown
Sunlit
N/A
Visualization observer readout
Local Sidereal Time
18:52:53
Azimuth
Unknown
Elevation
Unknown
Doppler factor
Unknown
Orbital elements
Apogee altitude
835.408 km
Perigee altitude
793.582 km
Semi-major axis
7,192.632 km
Eccentricity
0.00291
Inclination
90.0475°
RAAN
23.1308°
Arg. of periapsis
245.6994°
True anomaly
114.41975°
Mean anomaly
114.1161°
Eccentric anomaly
114.26797°
Mean motion
3.55804 °/min
Orbital period
101.18 mins
BSTAR
0.0022805
Loading maneuver chart data...
Computing Atmospheric mass density...
Loading historical data...
Loading historical data...
Loading historical data...
Loading historical data...
Loading historical data...
Loading historical data...
Loading historical data...

Documentation

Showing up to 5 results
|